Voltar ao catálogo

STARLINK-32740

AtivoComunicaçõesVLEO
NORAD 62754·PAYLOAD·🇺🇸 United States

Lançado Jan 21, 2025 de Cape Canaveral Space Force Station

Loading…

Próximas Passagens (próximas 24 horas)

TLE

AtualizadoSource: CelesTrak SupGP

Época: Sep 15, 2026, 02:01 UTC

1 62754C 25014V   26258.08451389 -.00034604  00000+0 -12534-2 0  2580
2 62754  43.0020 164.4011 0001081 276.0222 220.7362 15.27596026    19

Acompanhe STARLINK-32740 em tempo real com AllMySat

Download on the App Store